STARLINK-31916, 59795

Orbit data source: Space-Track

STARLINK-31916, 59795 is a payload satellite owned by SpaceX/Seattle (US) in LEO that was launched on Sat, 18 May 2024 UTC via an FALCON 9 launch vehicle from the Air Force Eastern Test Range (AFETR). Payload-class satellites include a variety of spacecraft equipped with specific instruments for various scientific and technological missions. These include communications satellites like Starlink; space stations such as the ISS; scientific satellites like the Hubble; Earth observation satellites from companies like Planet Labs, Umbra, and HawkEye 360; GPS; miniature CubeSats for education and research; and military/defense satellites.

Loading next visibility...
Identifier
59795, 2024-093P
Orbit
LEO
Country
Flag of USUS
Related business
Manufacturer
SpaceX/Seattle
Mission
Operational spacecraft
Bus & Motor
STARLINK V2M, Unknown motor
Mass
730 kg wet, ~700 kg dry
Launch date (UTC)
2024-05-18 (1 year ago)
Launch vehicle
FALCON 9
Launch site
Air Force Eastern Test Range (AFETR)
Object type
Payload
Rocket body
Debris
Shape & HBR
Unknown
Radar Cross Section
Large (>1 m²)

Expand to show TLE details & history
Last TLE update: 19 hours ago

TLE from 19 hours ago
0 STARLINK-31916
1 59795U 24093P   25257.98506262 -.00000506  00000-0 -88748-5 0  9995
2 59795  43.0007 121.1844 0001388 277.0295  83.0399 15.27573692 75825
Epoch: 2025-09-14T23:38Z
TLE epoch observation values (Epoch: 2025-09-14T23:38:29.41Z)
Latitude
Longitude
132.36564°
Altitude
482.728 km
Speed
7.626 km/s
True Right ascension
08h 04m 44s
True Declination
0° 00' 00"
Sunlit
Object was in daylight at epoch
Visualization orbit readout
Latitude
Unknown
Longitude
Unknown
Altitude
Unknown
Speed
Unknown
Apparent Right ascension
Unknown
Apparent Declination
Unknown
Sunlit
N/A
Visualization observer readout
Local Sidereal Time
11:00:50
Azimuth
Unknown
Elevation
Unknown
Doppler factor
Unknown
Orbital elements
Apogee altitude
485.966 km
Perigee altitude
484.06 km
Semi-major axis
6,863.15 km
Eccentricity
0.00014
Inclination
43.0007°
RAAN
121.1844°
Arg. of periapsis
277.0295°
True anomaly
83.05569°
Mean anomaly
83.0399°
Eccentric anomaly
83.04779°
Mean motion
3.81731 °/min
Orbital period
94.31 mins
BSTAR
-0.0000088748
Loading maneuver chart data...
Computing Atmospheric mass density...
Loading historical data...
Loading historical data...
Loading historical data...
Loading historical data...
Loading historical data...
Loading historical data...
Loading historical data...

Documentation

Showing up to 5 results
|